Location: Claflin County Park
(44.8478°N, 87.5507°W)
Time: 03:25:05
(UTC+00:00)

USA 234 - Pass Details

Date: 17 March 2026
Orbit: 1102 x 1106 km, 123.0° (Epoch: 4 January)

Event Time Altitude Azimuth Distance (km) Brightness Sun altitude
Exits shadow 00:29:28 - 63° (ENE) 3,728 5.5 -6.4°
Reaches altitude 10° 00:31:41 10° 55° (NE) 2,968 5.1 -6.8°
Maximum altitude 00:37:14 31° 357° (N) 1,844 4.6 -7.8°
Drops below altitude 10° 00:42:47 10° 299° (WNW) 2,969 6.8 -8.8°
Sets 00:45:33 0° 289° (WNW) 3,928 8.1 -9.3°
